#timestamp,LO_Frequency,Hit,StdDev 
1575936015.0,286047000.1,N
1575936015.9,286047000.1,N
1575936035.8,286047000.4,N
1575936055.6,286047000.4,N
1575936075.4,286047001.8,N
1575936095.3,286047003.9,Y
1575936115.1,286047001.9,P
1575936135.9,286047001.6,P
1575936155.7,286047003.8,P
1575936175.5,286047001.5,N
1575936195.4,286046999.9,N
1575936215.2,286047001.1,N
1575936235.0,286047000.2,N
1575936236.0,286047000.2,N
1575936255.8,286046999.8,N
1575936275.6,286046998.5,N
1575936295.5,286046998.1,N
1575936315.3,286046998.6,N
1575936335.1,286046998.8,N
1575936355.9,286047000.5,N
1575936375.7,286046999.8,N
1575936395.6,286046999.8,N
1575936415.4,286046999.7,N
1575936435.2,286047000.0,N
1575936455.1,286047002.1,N
1575936456.0,286047002.1,N
1575936475.8,286047000.5,N
1575936495.6,286047002.2,N
1575936515.5,286047003.8,N
1575936535.3,286047003.0,N
1575936555.2,286047004.9,Y
1575936575.0,286047005.4,P
1575936575.9,286047005.4,N
1575936595.7,286047003.9,N
1575936615.6,286047003.7,N
1575936635.4,286047003.4,N
1575936655.3,286047004.9,Y
1575936675.1,286047003.2,P
1575936676.0,286047003.2,P
1575936695.8,286047003.0,P
1575936715.7,286047002.9,Y
1575936735.5,286047000.0,P
1575936755.4,286047000.0,N
1575936775.2,286047000.6,N
1575936795.0,286047000.6,N
1575936795.9,286047000.6,N
1575936815.8,286047001.0,N
1575936835.6,286046998.2,N
1575936855.4,286046999.0,N
1575936875.3,286047000.8,N
1575936895.1,286046998.5,N
1575936915.9,286047000.4,N
1575936935.7,286046998.1,N
1575936955.5,286046999.0,N
1575936975.4,286046999.3,N
1575936995.2,286046999.6,N
1575937015.0,286046999.3,N
1575937016.0,286046999.3,N
1575937035.8,286046996.5,N
1575937055.6,286046999.3,N
1575937075.5,286046997.0,N
1575937095.3,286046997.3,N
1575937115.1,286046996.7,N
1575937135.9,286046997.3,N
1575937155.7,286046996.8,N
1575937175.6,286046996.5,N
1575937195.4,286046999.4,N
1575937215.2,286046998.4,N
1575937235.1,286046998.4,N
1575937236.0,286046998.4,N
1575937255.8,286046998.3,N
1575937275.6,286047001.2,N
1575937295.5,286047000.3,N
1575937315.3,286047000.1,N
1575937335.2,286046999.9,N
1575937355.9,286047002.4,N
1575937375.7,286047001.0,N
1575937395.6,286046998.4,N
1575937415.4,286046996.9,N
1575937435.2,286046995.6,N
1575937455.1,286046995.6,N
1575937456.0,286046995.6,N
1575937475.8,286046993.8,Y
1575937495.7,286046997.9,P
1575937515.5,286046996.4,P
1575937535.3,286046996.3,P
1575937555.2,286046996.3,Y
1575937575.0,286046998.9,P
1575937575.9,286046998.9,N
1575937595.8,286046999.2,N
1575937615.6,286046997.1,Y
1575937635.4,286047000.7,P
1575937655.3,286047001.0,N
1575937675.1,286047001.0,N
1575937695.9,286046999.4,N
1575937715.7,286046998.3,N
1575937735.5,286046999.6,N
1575937755.4,286047001.1,N
1575937775.2,286046998.2,N
1575937795.0,286047000.6,N
1575937795.9,286047000.6,N
1575937815.8,286047001.1,N
1575937835.6,286047001.2,N
1575937855.5,286047000.7,N
1575937875.3,286046999.0,N
1575937895.1,286046999.4,N
1575937915.9,286046996.5,Y
1575937935.7,286046995.8,P
1575937955.5,286046995.3,N
1575937975.4,286046999.0,N
1575937995.2,286046997.6,N
1575938015.1,286046997.8,N
1575938016.0,286046997.8,N
1575938035.8,286046997.6,N
1575938055.6,286046994.9,Y
1575938075.5,286047000.8,P
1575938095.3,286046998.3,N
1575938115.2,286046998.6,N
1575938135.9,286047001.2,N
1575938155.7,286047000.2,N
1575938175.6,286047000.1,N
1575938195.4,286047002.1,N
1575938215.2,286047002.7,N
1575938235.1,286047000.0,N
1575938236.0,286047000.0,N
1575938255.8,286046999.9,N
1575938275.7,286047000.1,N
1575938295.5,286047002.3,N
1575938315.3,286047000.0,N
1575938335.2,286046998.3,N
1575938355.9,286046999.2,N
1575938375.7,286046999.2,N
1575938395.6,286046999.0,N
1575938415.4,286046998.4,N
1575938435.3,286046999.1,N
1575938455.1,286046999.0,N
1575938456.0,286046999.0,N
1575938475.8,286046999.1,N
1575938495.7,286046996.7,N
1575938515.5,286046998.0,N
1575938535.3,286046993.4,Y
1575938555.2,286046995.2,P
1575938575.0,286046995.3,N
1575938575.9,286046995.3,N
1575938595.8,286046995.7,N
1575938615.6,286046995.6,N
1575938635.4,286046995.9,N
1575938655.3,286046994.9,Y
1575938675.1,286046998.7,P
1575938695.8,286046998.5,N
1575938715.7,286046998.1,N
1575938735.5,286047001.2,N
1575938755.4,286046998.4,N
1575938775.2,286046998.8,N
1575938795.0,286046998.2,N
1575938795.9,286046998.2,N
1575938815.8,286047000.9,N
1575938835.6,286047001.0,N
1575938855.5,286047000.4,N
1575938875.3,286047002.8,N
1575938895.1,286047000.4,N
1575938915.9,286047001.0,N
1575938935.7,286046999.5,N
1575938955.5,286046996.5,N
1575938975.4,286046997.0,N
1575938995.2,286046996.7,N
1575939015.1,286046996.5,N
1575939016.0,286046996.5,N
1575939035.8,286046996.7,N
1575939055.6,286046997.3,N
1575939075.5,286046997.3,N
1575939095.3,286046997.3,N
1575939115.1,286046999.4,N
1575939135.9,286046999.2,N
1575939155.7,286046998.6,N
1575939175.6,286046998.5,N
1575939195.4,286047001.1,N
1575939215.2,286047000.4,N
1575939235.1,286047000.5,N
1575939236.0,286047000.5,N
1575939255.8,286047002.8,N
1575939275.7,286047002.4,N
1575939295.5,286047001.9,N
1575939315.3,286047004.4,N
1575939335.2,286047003.7,N
1575939355.0,286047003.8,N
1575939355.9,286047003.8,N
1575939375.7,286047003.2,N
1575939395.6,286047004.1,N
1575939415.4,286047005.9,N
1575939435.3,286047005.5,N
1575939455.1,286047003.4,N
1575939456.0,286047003.4,N
1575939475.8,286047004.2,N
1575939495.7,286047004.1,N
1575939515.5,286047003.2,N
1575939535.4,286047005.5,N
1575939555.2,286047005.7,N
1575939575.0,286047006.0,N
1575939575.9,286047006.0,N
1575939595.8,286047003.2,N
